Regional Weather Roundup
Issued by NWS

Home | Current Version | Previous Version | Graphics & Text | Print | Product List | Glossary On
Versions: 1 2 3 4 5 6 7 8 9 10 11 12 13 14 15 16 17 18 19 20 21 22 23 24 25 26 27 28 29 30 31 32 33 34 35 36 37 38 39 40 41 42 43 44 45 46 47 48 49 50
000
ASUS43 KLOT 040003
RWRIL

ILLINOIS REGIONAL WEATHER ROUNDUP
NATIONAL WEATHER SERVICE CHICAGO/ROMEOVILLE IL
700 PM CDT TUE MAY 03 2016

NOTE: "FAIR" INDICATES FEW OR NO CLOUDS BELOW 12,000 FEET WITH NO
SIGNIFICANT WEATHER AND/OR OBSTRUCTIONS TO VISIBILITY.

* THESE STATIONS ARE NOT UNDER NWS QUALITY CONTROL. THEY ALSO MAY NOT
  REPORT WEATHER SUCH AS PRECIPITATION OR FOG.

ILZ001-002-007-009-015-016-024-040100-
NORTHWEST ILLINOIS

CITY           SKY/WX    TMP DP  RH WIND       PRES   REMARKS
MOLINE         MOSUNNY   65  40  39 W13       29.81F
6HR MIN TEMP:  64; 6HR MAX TEMP:  70;

STERLING*      CLOUDY    63  43  48 W14       29.80F
$$

ILZ003-004-008-010-011-017-018-040100-
NORTH CENTRAL ILLINOIS

CITY           SKY/WX    TMP DP  RH WIND       PRES   REMARKS
ROCKFORD       CLOUDY    64  40  41 W13       29.79F
6HR MIN TEMP:  63; 6HR MAX TEMP:  68;

FREEPORT*      CLOUDY    62  41  46 W10G16    29.79F
DE KALB*       CLOUDY    62  41  46 W13       29.79F
$$

ILZ005-006-012>014-019>023-040100-
NORTHEAST ILLINOIS

CITY           SKY/WX    TMP DP  RH WIND       PRES   REMARKS
CHICAGO-OHARE  CLOUDY    63  38  39 W12G22    29.77F
6HR MIN TEMP:  63; 6HR MAX TEMP:  67;

CHICAGO-MIDWAY CLOUDY    65  37  35 W16       29.78F
6HR MIN TEMP:  65; 6HR MAX TEMP:  68;

AURORA         MOCLDY    63  41  44 W14       29.79F
6HR MIN TEMP:  63; 6HR MAX TEMP:  68;

LANSING*       CLOUDY    63  38  39 W9        29.80F
WAUKEGAN       CLOUDY    64  39  39 SW8G17    29.74F
6HR MIN TEMP:  63; 6HR MAX TEMP:  68;

DUPAGE AIRPORT MOCLDY    63  38  39 W13G21    29.78F
6HR MIN TEMP:  63; 6HR MAX TEMP:  67;

WHEELING       MOCLDY    64  37  36 W15       29.77F
6HR MIN TEMP:  63; 6HR MAX TEMP:  67;

NORTHERLY ISL    N/A     65  34  31 W9          N/A
NORTHERLY ISL    N/A     65  34  31 W9          N/A
$$

LMZ740>746-040100-
SOUTHERN LAKE MICHIGAN

STATION/POSITION SKY/WX   TEMP    WIND        PRES    VSBY  WAVE
                          AIR SEA DIR/SP/G                  HT/PER
                          (F)     (DEG/KT/KT) (MB)    (MI)  (FT/S)
SOUTHERN BUOY              46 42  170/ 14/ 14 1007.8          1/ 3
HARRISON CRIB              65     260/ 13/ 14   N/A
BURNHAM HARBOR             64     250/  7/ 14   N/A
CALUMET HARBOR             65                 1008.5F
BURNS HARBOR               60     280/  8/ 10 1009.8F
MICHIGAN CITY              62     220/  8/  8   N/A
ST. JOSEPH                 54 51                N/A           0
$$

ILZ025>027-034>036-040-047-049-050-058-095>099-040100-
WEST-CENTRAL ILLINOIS

CITY           SKY/WX    TMP DP  RH WIND       PRES   REMARKS
QUINCY         PTSUNNY   64  39  39 W7        29.89F
MACOMB*        CLOUDY    64  42  44 SW8       29.88F
$$

ILZ028>032-037-038-041>044-048-051>054-059>061-040100-
CENTRAL ILLINOIS

CITY           SKY/WX    TMP DP  RH WIND       PRES   REMARKS
BLOOMINGTON    PTCLDY    63  39  41 W10       29.87F
DECATUR        CLOUDY    63  42  46 W10       29.88F
PEORIA         PTCLDY    64  36  35 W10       29.85F
6HR MIN TEMP:  63; 6HR MAX TEMP:  69;

SPRINGFIELD    PTCLDY    65  43  44 W14       29.88F
6HR MIN TEMP:  64; 6HR MAX TEMP:  68;

TAYLORVILLE    NOT AVBL
$$

ILZ033-039-045-046-055>057-062-063-040100-
EAST-CENTRAL ILLINOIS

CITY           SKY/WX    TMP DP  RH WIND       PRES   REMARKS
CHAMPAIGN      CLOUDY    62  42  47 W9        29.86F
MATTOON        CLOUDY    60  41  49 W8        29.88F
$$

ILZ079-100>102-040100-
SOUTHWEST ILLINOIS

CITY           SKY/WX    TMP DP  RH WIND       PRES   REMARKS
ALTON          PTCLDY    59  43  55 W8        29.94F
CAHOKIA*       PTCLDY    63  43  48 W6        29.94S
SPARTA*        CLOUDY    60  46  59 W3        29.95F
$$

ILZ064>066-069>071-074>076-080>082-084>086-088>090-092>094-040100-
SOUTH-CENTRAL ILLINOIS

CITY           SKY/WX    TMP DP  RH WIND       PRES   REMARKS
CARBONDALE     CLOUDY    60  44  55 NW5       29.94F
6HR MIN TEMP:  60; 6HR MAX TEMP:  65;

MT. VERNON     CLOUDY    61  43  51 CALM      29.94F
SALEM*         CLOUDY    60  46  58 W8        29.93S
$$

ILZ067-068-072-073-078-083-087-091-040100-
SOUTHEAST ILLINOIS

CITY           SKY/WX    TMP DP  RH WIND       PRES   REMARKS
LAWRENCEVILLE  PTCLDY    63  42  46 W9        29.89F
FLORA*         MOCLDY    61  45  55 W12       29.92S
HARRISBURG*    MOCLDY    61  44  52 NW8       29.94S
ROBINSON*      MOCLDY    59  45  60 W5        29.89F
$$

ABBREVIATIONS USED IN REMARKS
   TC - TEMPERATURE IN CELSIUS
  WCI - WIND CHILL INDEX
   HX - HEAT INDEX
  VSB - VISIBILITY
$$





USA.gov is the U.S. government's official web portal to all federal, state and local government web resources and services.